Weather History for Norfolk, VA

Change the Weather History Date:

Monday, October 29, 2012

  Actual Average Record
Temperature  
Mean Temperature 51 °F 58 °F  
Max Temperature 59 °F 66 °F 82 °F (1946)
Min Temperature 43 °F 50 °F 27 °F (1976)
Degree Days  
Heating Degree Days 14 8  
Month to date heating degree days 99 131  
Since 1 July heating degree days 103 142  
Cooling Degree Days 0 1  
Month to date cooling degree days 68 54  
Year to date cooling degree days 1850 1619  
Moisture  
Dew Point 49 °F    
Average Humidity 90    
Maximum Humidity 96    
Minimum Humidity 83    
Precipitation  
Precipitation 3.87 in 0.12 in 3.87 in (2012)
Month to date precipitation 8.49 3.19  
Year to date precipitation 42.44 39.89  
Snow  
Snow 0.00 in 0.00 in 0.00 in (2002)
Month to date snowfall 0.0 0.0  
Since 1 July snowfall 0.0 0.0  
Snow Depth 0.00 in    
Sea Level Pressure  
Sea Level Pressure 29.17 in    
Wind  
Wind Speed 21 mph (NW)    
Max Wind Speed 37 mph    
Max Gust Speed 49 mph    
Visibility 5 miles    
Events Rain    
T = Trace of Precipitation, MM = Missing Value Source: NWS Daily Summary

Daily Weather History Graph

Daily Weather History Graph

Search for Another Location

Airport:

Trip Planner

Search our weather history database for the weather conditions in past years. The results will help you decide how hot, cold, wet, or windy it might be!

Date:

Astronomy

Oct. 29, 2012 Rise Set
Actual Time 7:26 AM EDT 6:10 PM EDT
Civil Twilight 6:59 AM EDT 6:36 PM EDT
Nautical Twilight 6:28 AM EDT 7:07 PM EDT
Astronomical Twilight 5:58 AM EDT 7:37 PM EDT
Moon 6:01 PM EDT (10/29) 7:13 AM EDT (10/29)
Length of Visible Light 11h 37m
Length of Day
10h 44m
Full, 100% of the Moon is Illuminated
Oct 29
Full
Oct 29
Full
Nov 6
Last Quarter
Nov 13
New
Nov 20
First Quarter

Hourly Weather History & Observations

Time (EDT) Temp. Windchill Dew Point Humidity Pressure Visibility Wind Dir Wind Speed Gust Speed Precip Events Conditions
12:51 AM 59.0 °F - 55.9 °F 90% 29.35 in 7.0 mi North 26.5 mph 38.0 mph 0.05 in Rain Light Rain
1:51 AM 59.0 °F - 55.9 °F 90% 29.34 in 5.0 mi North 27.6 mph 40.3 mph 0.05 in Rain Rain
2:51 AM 57.9 °F - 55.0 °F 90% 29.31 in 4.0 mi North 28.8 mph 42.6 mph 0.12 in Rain Rain
2:58 AM 57.2 °F - 55.4 °F 94% 29.31 in 4.0 mi North 32.2 mph 42.6 mph 0.01 in Rain Rain
3:14 AM 57.2 °F - 55.4 °F 94% 29.30 in 4.0 mi North 25.3 mph 39.1 mph 0.06 in Rain Rain
3:23 AM 57.2 °F - 53.6 °F 88% 29.29 in 4.0 mi North 32.2 mph 43.7 mph 0.09 in Rain Heavy Rain
3:35 AM 57.2 °F - 53.6 °F 88% 29.27 in 3.0 mi North 31.1 mph 48.3 mph 0.13 in Rain Heavy Rain
3:51 AM 57.0 °F - 54.0 °F 89% 29.27 in 3.0 mi North 34.5 mph 49.5 mph 0.20 in Rain Rain
4:13 AM 57.2 °F - 53.6 °F 88% 29.30 in 3.0 mi North 27.6 mph 40.3 mph 0.09 in Rain Heavy Rain
4:51 AM 57.0 °F - 54.0 °F 89% 29.28 in 3.0 mi North 29.9 mph 42.6 mph 0.28 in Rain Rain
5:46 AM 57.2 °F - 53.6 °F 88% 29.30 in 3.0 mi North 26.5 mph 40.3 mph 0.27 in Rain Heavy Rain
5:51 AM 57.0 °F - 54.0 °F 89% 29.30 in 3.0 mi North 25.3 mph 39.1 mph 0.29 in Rain Heavy Rain
6:22 AM 55.4 °F - 53.6 °F 94% 29.29 in 3.0 mi North 25.3 mph 39.1 mph 0.18 in Rain Heavy Rain
6:51 AM 55.9 °F - 54.0 °F 93% 29.27 in 3.0 mi NNW 23.0 mph 38.0 mph 0.35 in Rain Heavy Rain
7:06 AM 55.4 °F - 53.6 °F 94% 29.26 in 3.0 mi North 21.9 mph 34.5 mph 0.11 in Rain Heavy Rain
7:17 AM 55.4 °F - 53.6 °F 94% 29.27 in 4.0 mi North 20.7 mph 40.3 mph 0.16 in Rain Rain
7:20 AM 55.4 °F - 53.6 °F 94% 29.27 in 4.0 mi NNW 12.7 mph 28.8 mph 0.16 in Rain Rain
7:51 AM 55.0 °F - 53.1 °F 93% 29.26 in 4.0 mi NNW 17.3 mph 28.8 mph 0.27 in Rain Rain
8:51 AM 54.0 °F - 51.1 °F 90% 29.26 in 7.0 mi NW 13.8 mph 21.9 mph 0.14 in Rain Light Rain
9:51 AM 53.1 °F - 50.0 °F 89% 29.24 in 4.0 mi NNW 11.5 mph 29.9 mph 0.12 in Rain Rain
10:28 AM 51.8 °F - 50.0 °F 94% 29.21 in 2.5 mi NW 15.0 mph 23.0 mph 0.20 in Rain Heavy Rain
10:51 AM 52.0 °F - 50.0 °F 93% 29.20 in 2.5 mi NW 11.5 mph 33.4 mph 0.32 in Rain Heavy Rain
10:58 AM 51.8 °F - 50.0 °F 94% 29.20 in 3.0 mi NW 9.2 mph 25.3 mph 0.05 in Rain Rain
11:02 AM 51.8 °F - 50.0 °F 94% 29.20 in 2.5 mi NW 11.5 mph 27.6 mph 0.07 in Rain Rain
11:26 AM 51.8 °F - 50.0 °F 94% 29.19 in 3.0 mi NW 13.8 mph 25.3 mph 0.21 in Rain Rain
11:33 AM 51.8 °F - 50.0 °F 94% 29.18 in 2.5 mi NW 10.4 mph 23.0 mph 0.26 in Rain Heavy Rain
11:44 AM 51.8 °F - 50.0 °F 94% 29.18 in 3.0 mi NW 17.3 mph 29.9 mph 0.31 in Rain Rain
11:51 AM 52.0 °F - 50.0 °F 93% 29.17 in 3.0 mi NW 11.5 mph 29.9 mph 0.34 in Rain Rain
12:00 PM 51.8 °F - 48.2 °F 88% 29.17 in 2.0 mi NW 13.8 mph 26.5 mph 0.05 in Rain Heavy Rain
12:09 PM 51.8 °F - 50.0 °F 94% 29.17 in 1.8 mi NW 9.2 mph 24.2 mph 0.14 in Rain Heavy Rain
12:13 PM 51.8 °F - 50.0 °F 94% 29.16 in 2.0 mi WNW 16.1 mph 25.3 mph 0.17 in Rain Heavy Rain
12:30 PM 51.8 °F - 48.2 °F 88% 29.15 in 2.0 mi WNW 12.7 mph 29.9 mph 0.31 in Rain Rain
12:37 PM 51.8 °F - 48.2 °F 88% 29.14 in 2.5 mi WNW 13.8 mph 28.8 mph 0.35 in Rain Rain
12:49 PM 51.8 °F - 48.2 °F 88% 29.13 in 2.5 mi WNW 13.8 mph 28.8 mph 0.42 in Rain Rain
12:51 PM 51.1 °F - 48.9 °F 92% 29.13 in 2.5 mi WNW 12.7 mph 28.8 mph 0.44 in Rain Rain
12:59 PM 51.8 °F - 48.2 °F 88% 29.13 in 2.5 mi WNW 11.5 mph 24.2 mph 0.05 in Rain Rain
1:01 PM 51.8 °F - 48.2 °F 88% 29.13 in 3.0 mi WNW 12.7 mph 27.6 mph 0.06 in Rain Rain
1:17 PM 51.8 °F - 48.2 °F 88% 29.12 in 2.5 mi WNW 12.7 mph 25.3 mph 0.13 in Rain Rain
1:21 PM 51.8 °F - 48.2 °F 88% 29.12 in 3.0 mi WNW 11.5 mph 26.5 mph 0.15 in Rain Rain
1:44 PM 51.8 °F - 48.2 °F 88% 29.10 in 3.0 mi West 15.0 mph 32.2 mph 0.24 in Rain Rain
1:51 PM 51.1 °F - 48.0 °F 89% 29.10 in 3.0 mi WNW 17.3 mph 32.2 mph 0.26 in Rain Rain
2:51 PM 50.0 °F - 46.9 °F 89% 29.07 in 4.0 mi West 17.3 mph 29.9 mph 0.19 in Rain Rain
3:51 PM 48.9 °F - 46.0 °F 90% 29.06 in 4.0 mi West 13.8 mph 29.9 mph 0.11 in Rain Rain
4:51 PM 48.0 °F - 45.0 °F 89% 29.04 in 5.0 mi West 20.7 mph 31.1 mph 0.12 in Rain Light Rain
5:51 PM 46.9 °F - 44.1 °F 90% 29.02 in 7.0 mi WSW 19.6 mph 34.5 mph 0.09 in Rain Light Rain
6:07 PM 46.4 °F 39.0 °F 44.6 °F 93% 29.02 in 8.0 mi WSW 19.6 mph 34.5 mph 0.02 in Rain Light Rain
6:16 PM 46.4 °F 39.2 °F 42.8 °F 87% 29.02 in 8.0 mi West 18.4 mph 33.4 mph 0.02 in Rain Light Rain
6:27 PM 46.4 °F 38.7 °F 42.8 °F 87% 29.02 in 9.0 mi WSW 20.7 mph 40.3 mph 0.03 in Rain Light Rain
6:42 PM 46.4 °F 38.7 °F 42.8 °F 87% 29.03 in 10.0 mi WSW 20.7 mph 33.4 mph 0.04 in Rain Light Rain
6:51 PM 46.0 °F 38.5 °F 43.0 °F 89% 29.03 in 10.0 mi WSW 19.6 mph 28.8 mph 0.04 in Rain Light Rain
7:51 PM 46.0 °F 38.3 °F 42.1 °F 86% 29.03 in 9.0 mi WSW 20.7 mph 33.4 mph 0.03 in Rain Light Rain
8:14 PM 44.6 °F 36.9 °F 42.8 °F 93% 29.03 in 10.0 mi WSW 18.4 mph 33.4 mph 0.02 in Rain Light Rain
8:29 PM 44.6 °F 35.7 °F 41.0 °F 87% 29.04 in 10.0 mi WSW 24.2 mph 38.0 mph 0.02 in Rain Light Rain
8:51 PM 44.1 °F 34.4 °F 41.0 °F 89% 29.04 in 8.0 mi WSW 27.6 mph 39.1 mph 0.02 in Rain Light Rain
9:51 PM 44.1 °F 35.0 °F 39.9 °F 85% 29.06 in 10.0 mi WSW 24.2 mph 43.7 mph 0.04 in Rain Light Rain
10:51 PM 43.0 °F 33.3 °F 39.9 °F 89% 29.08 in 10.0 mi SW 25.3 mph 35.7 mph 0.00 in Rain Light Rain
11:51 PM 43.0 °F 34.2 °F 39.0 °F 86% 29.09 in 10.0 mi WSW 20.7 mph 33.4 mph 0.04 in Rain Light Rain